Home   Weather   Rapid City   Past weeks

Flag for USA Past Weather in Rapid City, South Dakota, USA — Yesterday and Last 2 Weeks

Now
45 °F

Sunny.


Feels Like: 40 °F
Forecast: 30 / 58 °F
Wind: 10 mph from North

Location: Ellsworth Air Force Base

Current Time: Apr 30, 2017 at 9:04:46 am

Latest Report: Apr 30, 2017 at 7:58 am


Visibility: 10 mi

Pressure: 30.07 "Hg (26.70 "Hg at 977m altitude)

Humidity: 38%

Dew Point: 20 °F

Location of Rapid CityLocation

Past Weather in Rapid City — Graph

°F

Rapid City Temperature Yesterday

Maximum temperature yesterday: 54 °F (at 3:58 pm)
Minimum temperature yesterday: 28 °F (at 4:58 am)
Average temperature yesterday: 43 °F

High & Low Weather Summary for the Past Weeks

 TemperatureHumidityPressure
High68 °F (Apr 23, 4:58 pm)100% (Apr 19, 2:04 am)30.34 "Hg (Apr 19, 2:04 am)
Low27 °F (Apr 25, 11:58 pm)22% (Apr 29, 2:58 pm)29.54 "Hg (Apr 24, 2:58 am)
Average45 °F71%29.93 "Hg
* Reported Apr 15 7:58 am — Apr 30 7:58 am, Rapid City, Weather by CustomWeather, © 2017

Note: Actual official high and low records may vary slightly from our data, if they occured in-between our weather recording intervals... More about our weather records

Advertising

Rapid City Weather History for the Previous 24 Hours

Scroll right to see more
 ConditionsComfort  
Time TempWeatherWind HumidityBarometerVisibility
7:58 am
Sun, Apr 30
45 °FSunny.10 mph38%30.07 "Hg10 mi
6:58 am34 °FSunny.10 mph67%30.10 "Hg10 mi
5:58 am31 °FSunny.12 mph66%30.10 "Hg10 mi
4:58 am27 °FSunny.6 mph79%30.12 "Hg10 mi
3:58 am29 °FClear.12 mph73%30.13 "Hg10 mi
2:58 am29 °FClear.9 mph73%30.15 "Hg10 mi
1:58 am30 °FClear.8 mph70%30.18 "Hg10 mi
12:58 am36 °FClear.6 mph51%30.19 "Hg10 mi
11:58 pm
Sat, Apr 29
37 °FClear.5 mph52%30.20 "Hg10 mi
10:58 pm42 °FClear.5 mph43%30.22 "Hg10 mi
9:58 pm44 °FClear.6 mph37%30.23 "Hg10 mi
8:58 pm46 °FPassing clouds.3 mph34%30.22 "Hg10 mi
7:58 pm50 °FClear.5 mph27%30.21 "Hg10 mi
6:58 pm53 °FClear.8 mph24%30.20 "Hg10 mi
5:58 pm54 °FPassing clouds.6 mph24%30.23 "Hg10 mi
4:58 pm54 °FPassing clouds.6 mph24%30.24 "Hg10 mi
3:58 pm54 °FSunny.8 mph22%30.24 "Hg10 mi
2:58 pm54 °FSunny.9 mph22%30.27 "Hg10 mi
1:58 pm52 °FPassing clouds.7 mph25%30.29 "Hg10 mi
12:58 pm51 °FSunny.No wind27%30.31 "Hg10 mi
11:58 am50 °FSunny.6 mph28%30.30 "Hg10 mi
10:58 am48 °FScattered clouds.No wind27%30.32 "Hg10 mi
9:58 am46 °FPartly sunny.3 mph39%30.34 "Hg10 mi
Weather by CustomWeather, © 2017

See weather overviewHow to use our weather pages